NIGCOMSAT 1R

Last updated on Sun Apr 12 2026 00:02:52 GMT+0000 (Coordinated Universal Time)

1 38014U 11077A 26101.52909742 .00000146 00000+0 00000+0 0 9999 2 38014 0.0224 225.1241 0002624 116.0321 91.5352 1.00271960 52289
UTC large
Height (km)
Speed (km/s)
/
Latitude / Longitude
Inclination (degrees)
Orbital Period (minutes)
Azimuth
Elevation
Range (km)
Doppler Factor

Next 0 passes for location: London (51.5072 / 0.1276)

Sorry there are no passes over London.
NIGCOMSAT 1R